Weather in Astafyevskiy

Russia / Chelyabinsk Oblast     53˚28′30″N   60˚04′16″E
temp.,
°C
wind,
m/s
gust,
m/s
humid.,
%
clouds,
%
prec.,
mm/h
press.,
hPa
HPBL,
m
16 january, sat
sat1623:00−12˚sse469094 0.0 1016132
02:00−10˚sse3793100 0.0 1014239
05:00−10˚sse3793100 0.0 1012226
08:00−9˚sse3693100 0.0 1010256
11:00−10˚s4793100 0.0 1009262
14:00−8˚sw51094100 0.2 1007356
17:00−7˚sw61292100 0.3 1006288
20:00−6˚wsw8178333 0.0 1007559
17 january, sun
sun1723:00−10˚wsw7168417 0.0 1010376
02:00−12˚sw714880 0.0 1011347
05:00−11˚sw818900 0.0 1009469
08:00−9˚sw9188690 0.0 10071003
11:00−11˚sw10188172 0.0 1008874
14:00−11˚wsw10177976 0.0 1010986
17:00−13˚wsw7158158 0.0 1012605
20:00−16˚wsw511860 0.0 1015218
18 january, mon
mon1823:00−19˚wsw47910 0.0 101694
02:00−21˚wsw45920 0.0 101876
05:00−22˚wsw34920 0.0 101846
08:00−23˚w22910 0.0 101920
11:00−21˚nnw23880 0.0 102031
14:00−19˚n118910 0.0 101935
17:00−23˚wnw11896 0.0 101920
20:00−23˚nnw118767 0.0 102020
19 january, tue
tue1923:00−22˚nne118683 0.0 102020
02:00−21˚nne2287100 0.0 101921
05:00−19˚ene2289100 0.0 101879
08:00−19˚ene3493100 0.0 1018135
11:00−19˚ene4794100 0.0 1018225
14:00−18˚ene4794100 0.0 1017278
17:00−18˚ne61093100 0.0 1016345
20:00−18˚ne61096100 0.9 1015420
20 january, wed
wed2023:00−19˚ne51097100 2.4 1015427
02:00−19˚nne4898100 1.6 1016427
05:00−20˚n3698100 2.2 1017369
08:00−21˚nnw3698100 0.3 1020245
11:00−21˚nnw3597100 0.6 1022323
14:00−21˚n3594100 0.1 1023340
17:00−21˚nne2498100 0.2 1025190
20:00−22˚nne2298100 0.1 102869